• En España
  • Lista de países
  • Para 7 días
  • Temperatura del agua
  • Mapa Satelital
  • El tiempo en el mapa
  • Informadores
  • user-avatar
    Iniciar sesión

    Tiempo cada hora Vila Real de Santo Antonio

    Hoy, 17 Diciembre, Domingo

    Tiempo Temperatura Precipitaciones Viento Presión Humedad
    00:00 +6°C° 0 mm 5 mps 768 mmHg 66%
    01:00 +5°C° 0 mm 6 mps 768 mmHg 66%
    02:00 +4°C° 0 mm 6 mps 768 mmHg 66%
    03:00 +4°C° 0 mm 6 mps 769 mmHg 66%
    04:00 +4°C° 0 mm 6 mps 769 mmHg 65%
    05:00 +4°C° 0 mm 6 mps 769 mmHg 64%
    06:00 +4°C° 0 mm 6 mps 769 mmHg 63%
    07:00 +4°C° 0 mm 7 mps 770 mmHg 60%
    08:00 +5°C° 0 mm 7 mps 770 mmHg 57%
    09:00 +6°C° 0 mm 7 mps 770 mmHg 54%
    10:00 +9°C° 0 mm 7 mps 770 mmHg 48%
    11:00 +11°C° 0 mm 7 mps 771 mmHg 42%
    12:00 +14°C° 0 mm 7 mps 771 mmHg 36%
    13:00 +14°C° 0 mm 7 mps 771 mmHg 35%
    14:00 +15°C° 0 mm 7 mps 770 mmHg 35%
    15:00 +15°C° 0 mm 6 mps 770 mmHg 34%
    16:00 +13°C° 0 mm 6 mps 771 mmHg 40%
    17:00 +10°C° 0 mm 6 mps 771 mmHg 46%
    18:00 +9°C° 0 mm 6 mps 771 mmHg 52%
    19:00 +8°C° 0 mm 6 mps 772 mmHg 55%
    20:00 +7°C° 0 mm 6 mps 772 mmHg 57%
    21:00 +5°C° 0 mm 6 mps 772 mmHg 59%
    22:00 +5°C° 0 mm 6 mps 772 mmHg 60%
    23:00 +6°C° 0 mm 5 mps 772 mmHg 61%

    Mañana, 18 Diciembre, Lunes

    Tiempo Temperatura Precipitaciones Viento Presión Humedad
    00:00 +5°C° 0 mm 5 mps 773 mmHg 61%
    01:00 +5°C° 0 mm 5 mps 772 mmHg 62%
    02:00 +5°C° 0 mm 5 mps 772 mmHg 62%
    03:00 +3°C° 0 mm 5 mps 772 mmHg 63%
    04:00 +3°C° 0 mm 5 mps 772 mmHg 63%
    05:00 +3°C° 0 mm 5 mps 772 mmHg 63%
    06:00 +3°C° 0 mm 5 mps 772 mmHg 63%
    07:00 +5°C° 0 mm 5 mps 772 mmHg 61%
    08:00 +5°C° 0 mm 5 mps 773 mmHg 58%
    09:00 +6°C° 0 mm 5 mps 773 mmHg 56%
    10:00 +9°C° 0 mm 5 mps 773 mmHg 50%
    11:00 +12°C° 0 mm 5 mps 773 mmHg 43%
    12:00 +14°C° 0 mm 5 mps 773 mmHg 37%
    13:00 +15°C° 0 mm 5 mps 772 mmHg 36%
    14:00 +15°C° 0 mm 5 mps 772 mmHg 35%
    15:00 +16°C° 0 mm 5 mps 771 mmHg 35%
    16:00 +14°C° 0 mm 4 mps 771 mmHg 41%
    17:00 +12°C° 0 mm 4 mps 771 mmHg 48%
    18:00 +10°C° 0 mm 4 mps 772 mmHg 55%
    19:00 +10°C° 0 mm 4 mps 772 mmHg 57%
    20:00 +8°C° 0 mm 4 mps 772 mmHg 59%
    21:00 +7°C° 0 mm 4 mps 772 mmHg 61%
    22:00 +7°C° 0 mm 4 mps 772 mmHg 61%
    23:00 +7°C° 0 mm 4 mps 772 mmHg 61%

    Pasado mañana, 19 Diciembre, Martes

    Tiempo Temperatura Precipitaciones Viento Presión Humedad
    00:00 +7°C° 0 mm 4 mps 772 mmHg 61%
    01:00 +6°C° 0 mm 4 mps 772 mmHg 61%
    02:00 +6°C° 0 mm 4 mps 771 mmHg 61%
    03:00 +6°C° 0 mm 4 mps 771 mmHg 61%
    04:00 +6°C° 0 mm 4 mps 771 mmHg 60%
    05:00 +6°C° 0 mm 4 mps 771 mmHg 60%
    06:00 +6°C° 0 mm 4 mps 770 mmHg 60%
    07:00 +7°C° 0 mm 4 mps 771 mmHg 59%
    08:00 +8°C° 0 mm 4 mps 771 mmHg 59%
    09:00 +10°C° 0 mm 4 mps 771 mmHg 58%
    10:00 +12°C° 0 mm 4 mps 771 mmHg 53%
    11:00 +14°C° 0 mm 4 mps 771 mmHg 48%
    12:00 +18°C° 0 mm 4 mps 771 mmHg 44%
    13:00 +18°C° 0 mm 4 mps 770 mmHg 44%
    14:00 +19°C° 0 mm 4 mps 770 mmHg 45%
    15:00 +20°C° 0 mm 4 mps 769 mmHg 46%
    16:00 +18°C° 0 mm 3 mps 770 mmHg 53%
    17:00 +16°C° 0 mm 3 mps 770 mmHg 60%
    18:00 +13°C° 0 mm 3 mps 770 mmHg 67%
    19:00 +12°C° 0 mm 4 mps 770 mmHg 70%
    20:00 +12°C° 0 mm 4 mps 771 mmHg 72%
    21:00 +11°C° 0 mm 4 mps 771 mmHg 74%
    22:00 +10°C° 0 mm 4 mps 771 mmHg 75%
    23:00 +10°C° 0 mm 4 mps 771 mmHg 75%

    20 Diciembre, Miércoles

    Tiempo Temperatura Precipitaciones Viento Presión Humedad
    00:00 +10°C° 0 mm 4 mps 771 mmHg 76%
    01:00 +8°C° 0 mm 4 mps 771 mmHg 75%
    02:00 +8°C° 0 mm 4 mps 771 mmHg 75%
    03:00 +8°C° 0 mm 4 mps 771 mmHg 74%
    04:00 +7°C° 0 mm 4 mps 771 mmHg 75%
    05:00 +7°C° 0 mm 4 mps 771 mmHg 75%
    06:00 +7°C° 0 mm 3 mps 772 mmHg 76%
    07:00 +8°C° 0 mm 3 mps 772 mmHg 73%
    08:00 +9°C° 0 mm 3 mps 772 mmHg 71%
    09:00 +10°C° 0 mm 3 mps 773 mmHg 69%
    10:00 +12°C° 0 mm 3 mps 773 mmHg 63%
    11:00 +14°C° 0 mm 3 mps 773 mmHg 58%
    12:00 +17°C° 0 mm 3 mps 773 mmHg 53%
    13:00 +17°C° 0 mm 3 mps 773 mmHg 50%
    14:00 +18°C° 0 mm 3 mps 772 mmHg 47%
    15:00 +18°C° 0 mm 2 mps 772 mmHg 44%
    16:00 +17°C° 0 mm 2 mps 772 mmHg 50%
    17:00 +15°C° 0 mm 2 mps 772 mmHg 56%
    18:00 +13°C° 0 mm 2 mps 772 mmHg 62%
    19:00 +12°C° 0 mm 2 mps 773 mmHg 65%
    20:00 +12°C° 0 mm 2 mps 773 mmHg 68%
    21:00 +10°C° 0 mm 2 mps 773 mmHg 71%
    22:00 +10°C° 0 mm 2 mps 773 mmHg 73%
    23:00 +9°C° 0 mm 3 mps 773 mmHg 74%

    21 Diciembre, Jueves

    Tiempo Temperatura Precipitaciones Viento Presión Humedad
    00:00 +9°C° 0 mm 3 mps 773 mmHg 76%
    01:00 +8°C° 0 mm 3 mps 773 mmHg 75%
    02:00 +8°C° 0 mm 3 mps 773 mmHg 74%
    03:00 +8°C° 0 mm 3 mps 773 mmHg 74%
    04:00 +8°C° 0 mm 3 mps 773 mmHg 73%
    05:00 +7°C° 0 mm 3 mps 773 mmHg 72%
    06:00 +7°C° 0 mm 3 mps 773 mmHg 72%
    07:00 +8°C° 0 mm 3 mps 774 mmHg 68%
    08:00 +9°C° 0 mm 3 mps 774 mmHg 65%
    09:00 +10°C° 0 mm 3 mps 775 mmHg 62%
    10:00 +12°C° 0 mm 3 mps 775 mmHg 56%
    11:00 +14°C° 0 mm 3 mps 775 mmHg 49%
    12:00 +17°C° 0 mm 3 mps 775 mmHg 43%
    13:00 +18°C° 0 mm 3 mps 775 mmHg 42%
    14:00 +18°C° 0 mm 3 mps 774 mmHg 42%
    15:00 +19°C° 0 mm 2 mps 774 mmHg 41%
    16:00 +17°C° 0 mm 2 mps 775 mmHg 49%
    17:00 +14°C° 0 mm 2 mps 775 mmHg 57%
    18:00 +12°C° 0 mm 2 mps 775 mmHg 65%
    19:00 +12°C° 0 mm 2 mps 776 mmHg 66%
    20:00 +10°C° 0 mm 2 mps 776 mmHg 67%
    21:00 +10°C° 0 mm 2 mps 776 mmHg 68%
    22:00 +10°C° 0 mm 2 mps 776 mmHg 68%
    23:00 +9°C° 0 mm 2 mps 776 mmHg 68%

    22 Diciembre, Viernes

    Tiempo Temperatura Precipitaciones Viento Presión Humedad
    00:00 +9°C° 0 mm 3 mps 776 mmHg 68%
    01:00 +9°C° 0 mm 3 mps 776 mmHg 69%
    02:00 +8°C° 0 mm 3 mps 776 mmHg 69%
    03:00 +8°C° 0 mm 3 mps 775 mmHg 69%
    04:00 +8°C° 0 mm 3 mps 775 mmHg 70%
    05:00 +8°C° 0 mm 3 mps 775 mmHg 70%
    06:00 +7°C° 0 mm 3 mps 775 mmHg 70%
    07:00 +8°C° 0 mm 3 mps 775 mmHg 68%
    08:00 +9°C° 0 mm 3 mps 776 mmHg 66%
    09:00 +10°C° 0 mm 3 mps 776 mmHg 64%
    10:00 +12°C° 0 mm 3 mps 776 mmHg 58%
    11:00 +15°C° 0 mm 2 mps 775 mmHg 51%
    12:00 +17°C° 0 mm 2 mps 775 mmHg 45%
    13:00 +17°C° 0 mm 2 mps 774 mmHg 44%
    14:00 +18°C° 0 mm 2 mps 774 mmHg 43%
    15:00 +18°C° 0 mm 2 mps 773 mmHg 42%
    16:00 +17°C° 0 mm 2 mps 773 mmHg 49%
    17:00 +15°C° 0 mm 2 mps 773 mmHg 56%
    18:00 +12°C° 0 mm 3 mps 773 mmHg 63%
    19:00 +11°C° 0 mm 3 mps 773 mmHg 64%
    20:00 +11°C° 0 mm 3 mps 774 mmHg 65%
    21:00 +10°C° 0 mm 3 mps 774 mmHg 67%
    22:00 +10°C° 0 mm 3 mps 773 mmHg 67%
    23:00 +8°C° 0 mm 4 mps 773 mmHg 67%
    Mostrar más